AUA73J LOWW-ESSA

Flight info

Callsign AUA73J
Flight time 1h 48m
Altitude 40000
Route LANUX DCT VLM/N0479F410 DCT TOMTI DCT RUMAR DCT ARMOD Z228 NILUG
Aircraft B772/H-SDE2E3FGHIJ5LORVWXY/A1EDE9

Departure

Time 2026-04-25 18:32
Airport Vienna International Airport (LOWW)

Arrival

Time 2026-04-25 20:21
Airport Stockholm-Arlanda Airport (ESSA)
Time Latitude Longitude Altitude Speed Heading
2026-04-25 17:43 48.11888 16.55768 589 ft 0 kts 350°
2026-04-25 18:17 48.11876 16.55771 589 ft 2 kts 350°
2026-04-25 18:17 48.11861 16.55775 589 ft 2 kts 350°
2026-04-25 18:17 48.11846 16.55779 589 ft 2 kts 350°
2026-04-25 18:17 48.11831 16.55780 589 ft 2 kts 16°
2026-04-25 18:18 48.11818 16.55771 589 ft 2 kts 42°
2026-04-25 18:18 48.11809 16.55753 589 ft 2 kts 68°
2026-04-25 18:18 48.11805 16.55732 589 ft 2 kts 93°
2026-04-25 18:18 48.11808 16.55714 589 ft 0 kts 114°
2026-04-25 18:19 48.11809 16.55708 589 ft 0 kts 116°
2026-04-25 18:22 48.11809 16.55709 589 ft 0 kts 116°
2026-04-25 18:22 48.11804 16.55726 589 ft 2 kts 114°
2026-04-25 18:23 48.11792 16.55764 589 ft 5 kts 121°
2026-04-25 18:23 48.11755 16.55796 589 ft 7 kts 169°
2026-04-25 18:23 48.11700 16.55820 589 ft 9 kts 153°
2026-04-25 18:23 48.11659 16.55893 590 ft 9 kts 119°
2026-04-25 18:24 48.11631 16.55972 592 ft 8 kts 117°
2026-04-25 18:24 48.11606 16.56047 593 ft 8 kts 116°
2026-04-25 18:24 48.11581 16.56123 594 ft 8 kts 116°
2026-04-25 18:24 48.11557 16.56199 596 ft 8 kts 115°
2026-04-25 18:25 48.11533 16.56276 597 ft 8 kts 115°
2026-04-25 18:25 48.11508 16.56353 599 ft 7 kts 115°
2026-04-25 18:25 48.11488 16.56416 601 ft 6 kts 115°
2026-04-25 18:25 48.11472 16.56468 603 ft 4 kts 115°
2026-04-25 18:26 48.11458 16.56510 604 ft 3 kts 115°
2026-04-25 18:26 48.11448 16.56541 605 ft 2 kts 115°
2026-04-25 18:26 48.11439 16.56570 606 ft 3 kts 115°
2026-04-25 18:26 48.11425 16.56616 607 ft 5 kts 115°
2026-04-25 18:27 48.11404 16.56681 608 ft 8 kts 116°
2026-04-25 18:27 48.11372 16.56776 608 ft 12 kts 117°
2026-04-25 18:27 48.11331 16.56900 609 ft 14 kts 116°
2026-04-25 18:27 48.11285 16.57041 610 ft 15 kts 116°
2026-04-25 18:28 48.11235 16.57195 609 ft 17 kts 116°
2026-04-25 18:28 48.11179 16.57367 607 ft 19 kts 116°
2026-04-25 18:28 48.11136 16.57504 605 ft 7 kts 115°
2026-04-25 18:29 48.11075 16.57649 604 ft 3 kts 160°
2026-04-25 18:29 48.11052 16.57647 604 ft 3 kts 197°
2026-04-25 18:30 48.11025 16.57632 605 ft 0 kts 204°
2026-04-25 18:30 48.11020 16.57628 605 ft 2 kts 205°
2026-04-25 18:31 48.10995 16.57607 605 ft 5 kts 217°
2026-04-25 18:31 48.10960 16.57509 606 ft 19 kts 261°
2026-04-25 18:31 48.11018 16.57218 610 ft 39 kts 296°
2026-04-25 18:31 48.11223 16.56591 606 ft 100 kts 297°
2026-04-25 18:32 48.11611 16.55400 610 ft 150 kts 295°
2026-04-25 18:32 48.12082 16.53997 1088 ft 151 kts 295°
2026-04-25 18:32 48.12286 16.52447 1730 ft 160 kts 265°
2026-04-25 18:32 48.12075 16.50875 2122 ft 159 kts 262°
2026-04-25 18:33 48.11822 16.49173 2135 ft 179 kts 261°
2026-04-25 18:33 48.11608 16.47236 2267 ft 197 kts 274°
2026-04-25 18:33 48.11781 16.45115 2429 ft 217 kts 281°
2026-04-25 18:33 48.12040 16.42775 2661 ft 236 kts 281°
2026-04-25 18:34 48.12299 16.40347 3242 ft 240 kts 281°
2026-04-25 18:34 48.12557 16.37907 3871 ft 241 kts 281°
2026-04-25 18:34 48.12821 16.35398 4431 ft 246 kts 281°
2026-04-25 18:34 48.13086 16.32870 5028 ft 248 kts 280°
2026-04-25 18:35 48.13353 16.30324 5610 ft 252 kts 280°
2026-04-25 18:35 48.13625 16.27716 6165 ft 256 kts 280°
2026-04-25 18:35 48.13895 16.25124 6773 ft 257 kts 280°
2026-04-25 18:35 48.14309 16.22535 7337 ft 258 kts 294°
2026-04-25 18:36 48.15328 16.20353 7893 ft 261 kts 316°
2026-04-25 18:36 48.16844 16.18844 8499 ft 263 kts 329°
2026-04-25 18:36 48.18465 16.17606 9082 ft 266 kts 330°
2026-04-25 18:36 48.20134 16.16376 9650 ft 269 kts 330°
2026-04-25 18:37 48.21796 16.15150 10227 ft 272 kts 330°
2026-04-25 18:37 48.23538 16.13859 10475 ft 288 kts 330°
2026-04-25 18:37 48.25396 16.12480 10711 ft 305 kts 331°
2026-04-25 18:37 48.27344 16.11035 11002 ft 320 kts 331°
2026-04-25 18:38 48.29385 16.09520 11308 ft 336 kts 331°
2026-04-25 18:38 48.31493 16.07953 11633 ft 350 kts 331°
2026-04-25 18:38 48.33707 16.06307 12130 ft 360 kts 331°
2026-04-25 18:38 48.35989 16.04609 12841 ft 365 kts 331°
2026-04-25 18:39 48.38261 16.02918 13627 ft 369 kts 331°
2026-04-25 18:39 48.40531 16.01224 14414 ft 372 kts 331°
2026-04-25 18:39 48.42882 15.99469 15231 ft 377 kts 331°
2026-04-25 18:39 48.45232 15.97712 16057 ft 381 kts 330°
2026-04-25 18:40 48.47596 15.95943 16892 ft 383 kts 330°
2026-04-25 18:40 48.49957 15.94175 17655 ft 387 kts 330°
2026-04-25 18:40 48.52377 15.92360 18380 ft 392 kts 330°
2026-04-25 18:40 48.54819 15.90526 19115 ft 395 kts 330°
2026-04-25 18:41 48.57281 15.88676 19805 ft 399 kts 330°
2026-04-25 18:41 48.59717 15.86669 20466 ft 402 kts 327°
2026-04-25 18:41 48.62139 15.84574 21160 ft 405 kts 327°
2026-04-25 18:41 48.64603 15.82445 21836 ft 408 kts 327°
2026-04-25 18:42 48.67044 15.80341 22507 ft 411 kts 327°
2026-04-25 18:42 48.67880 15.79622 22733 ft 412 kts 327°
2026-04-25 18:42 48.72036 15.76044 23798 ft 417 kts 327°
2026-04-25 18:42 48.74561 15.73870 24404 ft 420 kts 327°
2026-04-25 18:43 48.77106 15.71678 24945 ft 424 kts 327°
2026-04-25 18:43 48.79689 15.69453 25474 ft 428 kts 327°
2026-04-25 18:43 48.82285 15.67213 26018 ft 431 kts 327°
2026-04-25 18:43 48.84882 15.64972 26540 ft 435 kts 327°
2026-04-25 18:44 48.87513 15.62699 27034 ft 439 kts 327°
2026-04-25 18:44 48.90252 15.60607 27546 ft 445 kts 333°
2026-04-25 18:44 48.93101 15.58711 28091 ft 447 kts 334°
2026-04-25 18:44 48.95940 15.56837 28574 ft 451 kts 333°
2026-04-25 18:45 48.98843 15.54918 29064 ft 455 kts 334°
2026-04-25 18:45 49.01728 15.53007 29571 ft 458 kts 334°
2026-04-25 18:45 49.04638 15.51075 30082 ft 460 kts 334°
2026-04-25 18:45 49.07548 15.49141 30711 ft 460 kts 334°
2026-04-25 18:46 49.10495 15.47179 31469 ft 456 kts 334°
2026-04-25 18:46 49.13353 15.45274 32245 ft 452 kts 334°
2026-04-25 18:46 49.16234 15.43351 33016 ft 448 kts 334°
2026-04-25 18:46 49.19063 15.41459 33705 ft 445 kts 334°
2026-04-25 18:47 49.21933 15.39537 34293 ft 444 kts 334°
2026-04-25 18:47 49.24760 15.37641 34835 ft 443 kts 334°
2026-04-25 18:47 49.27581 15.35746 35368 ft 441 kts 334°
2026-04-25 18:47 49.30399 15.33851 35856 ft 439 kts 333°
2026-04-25 18:48 49.33208 15.31960 36348 ft 438 kts 333°
2026-04-25 18:48 49.36002 15.30077 36890 ft 436 kts 333°
2026-04-25 18:48 49.38759 15.28216 37451 ft 434 kts 333°
2026-04-25 18:48 49.41503 15.26362 37936 ft 434 kts 333°
2026-04-25 18:49 49.44255 15.24499 38387 ft 433 kts 333°
2026-04-25 18:49 49.47007 15.22635 38806 ft 433 kts 333°
2026-04-25 18:49 49.49777 15.20756 39199 ft 432 kts 333°
2026-04-25 18:49 49.52513 15.18897 39523 ft 433 kts 333°
2026-04-25 18:50 49.55264 15.17027 39824 ft 432 kts 332°
2026-04-25 18:50 49.58012 15.15156 39978 ft 435 kts 332°
2026-04-25 18:50 49.63539 15.11385 39982 ft 433 kts 332°
2026-04-25 18:51 49.67220 15.09082 39981 ft 433 kts 339°
2026-04-25 18:51 49.72165 15.07558 39980 ft 443 kts 351°
2026-04-25 18:51 49.75279 15.07494 39977 ft 448 kts 358°
2026-04-25 18:52 49.81469 15.08548 39979 ft 451 kts
2026-04-25 18:52 49.87703 15.09696 39975 ft 451 kts
2026-04-25 18:53 49.93913 15.10824 39975 ft 450 kts
2026-04-25 18:53 50.00113 15.11942 39963 ft 451 kts
2026-04-25 18:54 50.09415 15.13617 39975 ft 450 kts
2026-04-25 18:55 50.15651 15.14740 39976 ft 451 kts
2026-04-25 18:55 50.21846 15.15858 39970 ft 450 kts
2026-04-25 18:56 50.28081 15.16986 39976 ft 450 kts
2026-04-25 18:56 50.34281 15.18110 39968 ft 450 kts
2026-04-25 18:57 50.40502 15.19242 39954 ft 450 kts
2026-04-25 18:57 50.46718 15.20373 39968 ft 451 kts
2026-04-25 18:58 50.52922 15.21508 39969 ft 449 kts
2026-04-25 18:58 50.62223 15.23212 39960 ft 450 kts
2026-04-25 18:59 50.74688 15.25509 40583 ft 449 kts
2026-04-25 19:00 50.80895 15.26656 40902 ft 450 kts
2026-04-25 19:00 50.83997 15.27230 40935 ft 452 kts
2026-04-25 19:01 50.93378 15.28975 40944 ft 449 kts
2026-04-25 19:01 50.99593 15.30091 40944 ft 452 kts
2026-04-25 19:02 51.08942 15.31711 40945 ft 448 kts
2026-04-25 19:03 51.16198 15.32974 40953 ft 451 kts
2026-04-25 19:03 51.24511 15.34430 40953 ft 449 kts 360°
2026-04-25 19:04 51.33832 15.36069 40943 ft 450 kts 360°
2026-04-25 19:05 51.46249 15.38265 40939 ft 449 kts 360°
2026-04-25 19:06 51.52433 15.39362 40926 ft 450 kts 360°
2026-04-25 19:06 51.61737 15.41020 40930 ft 448 kts 360°
2026-04-25 19:07 51.71007 15.42678 40914 ft 448 kts 360°
2026-04-25 19:08 51.80266 15.44341 40919 ft 447 kts 360°
2026-04-25 19:09 51.90614 15.46207 40913 ft 448 kts 359°
2026-04-25 19:10 52.01890 15.48250 40907 ft 450 kts 359°
2026-04-25 19:10 52.08098 15.49382 40875 ft 446 kts 359°
2026-04-25 19:11 52.14233 15.50501 40907 ft 448 kts 359°
2026-04-25 19:11 52.20433 15.51635 40909 ft 448 kts 359°
2026-04-25 19:12 52.26605 15.52768 40880 ft 448 kts 359°
2026-04-25 19:12 52.32805 15.53909 40867 ft 447 kts 359°
2026-04-25 19:13 52.38983 15.55049 40906 ft 449 kts 359°
2026-04-25 19:13 52.45148 15.56191 40867 ft 446 kts 359°
2026-04-25 19:14 52.51295 15.57331 40902 ft 447 kts 359°
2026-04-25 19:14 52.57453 15.58477 40890 ft 447 kts 359°
2026-04-25 19:15 52.63593 15.59624 40885 ft 445 kts 359°
2026-04-25 19:15 52.69785 15.60782 40870 ft 448 kts 359°
2026-04-25 19:16 52.75930 15.61936 40905 ft 447 kts 359°
2026-04-25 19:16 52.82107 15.63099 40885 ft 445 kts 359°
2026-04-25 19:17 52.88208 15.64250 40855 ft 445 kts 359°
2026-04-25 19:17 52.94373 15.65416 40854 ft 448 kts 359°
2026-04-25 19:18 53.00572 15.66595 40857 ft 446 kts 360°
2026-04-25 19:18 53.06691 15.67760 40874 ft 445 kts 360°
2026-04-25 19:19 53.12830 15.68930 40858 ft 449 kts 360°
2026-04-25 19:19 53.19053 15.70123 40840 ft 448 kts 360°
2026-04-25 19:20 53.25181 15.71300 40857 ft 448 kts
2026-04-25 19:20 53.31397 15.72497 40852 ft 450 kts 360°
2026-04-25 19:21 53.37552 15.73687 40847 ft 448 kts
2026-04-25 19:21 53.46870 15.75492 40838 ft 450 kts
2026-04-25 19:22 53.53052 15.76698 40834 ft 447 kts 360°
2026-04-25 19:23 53.62318 15.78505 40849 ft 451 kts
2026-04-25 19:23 53.71561 15.80319 40834 ft 450 kts
2026-04-25 19:24 53.77787 15.81545 40821 ft 450 kts
2026-04-25 19:25 53.90189 15.83999 40819 ft 449 kts
2026-04-25 19:25 53.96374 15.85227 40816 ft 450 kts
2026-04-25 19:26 54.02583 15.86465 40818 ft 449 kts
2026-04-25 19:26 54.08762 15.87700 40807 ft 450 kts
2026-04-25 19:27 54.12893 15.88526 40799 ft 452 kts
2026-04-25 19:27 54.21167 15.90191 40797 ft 449 kts
2026-04-25 19:28 54.27352 15.91438 40774 ft 449 kts
2026-04-25 19:28 54.33557 15.92693 40780 ft 451 kts
2026-04-25 19:29 54.39791 15.93959 40770 ft 448 kts
2026-04-25 19:29 54.45945 15.95210 40772 ft 452 kts
2026-04-25 19:30 54.52186 15.96485 40772 ft 450 kts
2026-04-25 19:30 54.58384 15.97754 40738 ft 450 kts
2026-04-25 19:31 54.64553 15.99022 40759 ft 448 kts
2026-04-25 19:31 54.70727 16.00294 40725 ft 449 kts
2026-04-25 19:32 54.76928 16.01575 40727 ft 449 kts
2026-04-25 19:32 54.81042 16.02427 40708 ft 450 kts
2026-04-25 19:33 54.89306 16.04260 40726 ft 451 kts
2026-04-25 19:33 54.95396 16.06761 40704 ft 455 kts
2026-04-25 19:34 55.01551 16.09369 40700 ft 455 kts
2026-04-25 19:34 55.07662 16.11969 40693 ft 453 kts
2026-04-25 19:35 55.13795 16.14582 40703 ft 458 kts
2026-04-25 19:35 55.19949 16.17216 40708 ft 456 kts
2026-04-25 19:36 55.26077 16.19847 40712 ft 455 kts
2026-04-25 19:36 55.32220 16.22491 40696 ft 458 kts
2026-04-25 19:37 55.38389 16.25156 40689 ft 459 kts
2026-04-25 19:37 55.44548 16.27825 40703 ft 458 kts
2026-04-25 19:38 55.50752 16.30522 40715 ft 460 kts
2026-04-25 19:38 55.56908 16.33207 40697 ft 460 kts
2026-04-25 19:39 55.63106 16.35918 40702 ft 461 kts
2026-04-25 19:39 55.69339 16.38655 40690 ft 461 kts
2026-04-25 19:40 55.75541 16.41387 40704 ft 463 kts
2026-04-25 19:40 55.81739 16.44125 40706 ft 462 kts
2026-04-25 19:41 55.87953 16.46881 40722 ft 463 kts
2026-04-25 19:41 55.92136 16.48740 40688 ft 463 kts
2026-04-25 19:42 56.00415 16.52433 40697 ft 464 kts
2026-04-25 19:42 56.06656 16.55228 40698 ft 463 kts
2026-04-25 19:43 56.12923 16.58044 40701 ft 465 kts
2026-04-25 19:43 56.19141 16.60847 40714 ft 463 kts
2026-04-25 19:44 56.25354 16.63658 40702 ft 464 kts
2026-04-25 19:44 56.31609 16.66497 40698 ft 464 kts 10°
2026-04-25 19:45 56.37835 16.69332 40696 ft 464 kts 10°
2026-04-25 19:45 56.44061 16.72177 40689 ft 465 kts 10°
2026-04-25 19:46 56.50310 16.75042 40696 ft 464 kts 10°
2026-04-25 19:46 56.56535 16.77906 40698 ft 463 kts 10°
2026-04-25 19:47 56.62746 16.80773 40691 ft 463 kts 10°
2026-04-25 19:47 56.68929 16.83638 40697 ft 463 kts 10°
2026-04-25 19:48 56.75171 16.86539 40695 ft 462 kts 11°
2026-04-25 19:48 56.81357 16.89424 40699 ft 463 kts 10°
2026-04-25 19:49 56.85524 16.91372 40685 ft 462 kts 11°
2026-04-25 19:49 56.93771 16.95243 40698 ft 461 kts 11°
2026-04-25 19:50 57.03040 16.99614 40697 ft 461 kts 11°
2026-04-25 19:51 57.09213 17.02538 40695 ft 462 kts 11°
2026-04-25 19:51 57.15433 17.05494 40691 ft 462 kts 11°
2026-04-25 19:52 57.21616 17.08442 40707 ft 462 kts 11°
2026-04-25 19:52 57.27811 17.11407 40699 ft 463 kts 11°
2026-04-25 19:53 57.34013 17.14385 40707 ft 462 kts 11°
2026-04-25 19:53 57.40216 17.17374 40693 ft 463 kts 11°
2026-04-25 19:54 57.46427 17.20377 40687 ft 463 kts 11°
2026-04-25 19:54 57.52611 17.23378 40678 ft 463 kts 11°
2026-04-25 19:55 57.58778 17.26384 40304 ft 458 kts 11°
2026-04-25 19:55 57.61887 17.27900 39902 ft 466 kts 11°
2026-04-25 19:55 57.65031 17.29436 39492 ft 469 kts 11°
2026-04-25 19:55 57.68177 17.30978 39069 ft 467 kts 11°
2026-04-25 19:56 57.71278 17.32501 38666 ft 465 kts 11°
2026-04-25 19:56 57.74386 17.34030 38269 ft 465 kts 10°
2026-04-25 19:56 57.77514 17.35571 37855 ft 465 kts 10°
2026-04-25 19:56 57.80582 17.37087 37337 ft 461 kts 10°
2026-04-25 19:57 57.83702 17.38630 36704 ft 462 kts 10°
2026-04-25 19:57 57.86807 17.40168 36145 ft 461 kts 10°
2026-04-25 19:57 57.89874 17.41689 35441 ft 463 kts 10°
2026-04-25 19:57 57.93010 17.43247 34673 ft 467 kts 10°
2026-04-25 19:58 57.96151 17.44809 33816 ft 472 kts
2026-04-25 19:58 57.99290 17.46180 33078 ft 469 kts
2026-04-25 19:58 58.02464 17.47039 32911 ft 455 kts
2026-04-25 19:58 58.05559 17.47833 32605 ft 447 kts
2026-04-25 19:59 58.08642 17.48617 31896 ft 453 kts
2026-04-25 19:59 58.11799 17.49417 30908 ft 466 kts
2026-04-25 19:59 58.15024 17.50236 30071 ft 471 kts
2026-04-25 19:59 58.18235 17.51059 29673 ft 464 kts
2026-04-25 20:00 58.21378 17.51869 29430 ft 453 kts
2026-04-25 20:00 58.27493 17.53445 28573 ft 445 kts
2026-04-25 20:00 58.30549 17.54233 28099 ft 443 kts
2026-04-25 20:01 58.36511 17.55778 26663 ft 428 kts
2026-04-25 20:01 58.39420 17.56533 25823 ft 422 kts
2026-04-25 20:01 58.42305 17.57283 24952 ft 416 kts
2026-04-25 20:02 58.45132 17.58020 23955 ft 409 kts
2026-04-25 20:02 58.47922 17.58748 22945 ft 400 kts
2026-04-25 20:02 58.50608 17.59451 21950 ft 391 kts
2026-04-25 20:02 58.53267 17.60147 20895 ft 383 kts
2026-04-25 20:03 58.55857 17.60826 19840 ft 375 kts
2026-04-25 20:03 58.58387 17.61490 18754 ft 368 kts
2026-04-25 20:03 58.60905 17.62151 17705 ft 366 kts
2026-04-25 20:03 58.63398 17.62805 16873 ft 366 kts
2026-04-25 20:04 58.65905 17.63463 16185 ft 364 kts
2026-04-25 20:04 58.68391 17.64118 15580 ft 359 kts
2026-04-25 20:04 58.70853 17.64768 14991 ft 355 kts
2026-04-25 20:04 58.73255 17.65403 14400 ft 351 kts
2026-04-25 20:05 58.75670 17.66042 13791 ft 347 kts
2026-04-25 20:05 58.78028 17.66667 13198 ft 343 kts
2026-04-25 20:05 58.80350 17.67285 12623 ft 329 kts
2026-04-25 20:05 58.82538 17.67870 12092 ft 311 kts
2026-04-25 20:06 58.84615 17.68427 11657 ft 293 kts
2026-04-25 20:06 58.86581 17.68954 11297 ft 282 kts
2026-04-25 20:06 58.88482 17.69461 10906 ft 278 kts
2026-04-25 20:06 58.90391 17.69970 10441 ft 276 kts
2026-04-25 20:07 58.92279 17.70474 10038 ft 273 kts
2026-04-25 20:07 58.94136 17.70969 9610 ft 272 kts
2026-04-25 20:07 58.95988 17.71464 9241 ft 268 kts
2026-04-25 20:07 58.97794 17.71950 9174 ft 254 kts
2026-04-25 20:08 58.99504 17.72411 9029 ft 245 kts
2026-04-25 20:08 59.01178 17.72860 8675 ft 244 kts
2026-04-25 20:08 59.02836 17.73304 8304 ft 243 kts
2026-04-25 20:08 59.04512 17.73753 7945 ft 242 kts
2026-04-25 20:09 59.06168 17.74198 7615 ft 240 kts
2026-04-25 20:09 59.07815 17.74641 7291 ft 238 kts
2026-04-25 20:09 59.09444 17.75079 6938 ft 237 kts
2026-04-25 20:09 59.11075 17.75519 6629 ft 235 kts
2026-04-25 20:10 59.11610 17.75663 6528 ft 234 kts
2026-04-25 20:10 59.14303 17.76389 5955 ft 234 kts
2026-04-25 20:10 59.15913 17.76824 5627 ft 233 kts
2026-04-25 20:10 59.17522 17.77258 5316 ft 232 kts
2026-04-25 20:11 59.19103 17.77686 4984 ft 232 kts
2026-04-25 20:11 59.20694 17.78117 4727 ft 228 kts
2026-04-25 20:11 59.22218 17.78532 4723 ft 215 kts
2026-04-25 20:11 59.23661 17.78924 4604 ft 209 kts
2026-04-25 20:12 59.25093 17.79313 4300 ft 210 kts
2026-04-25 20:12 59.26548 17.79707 4047 ft 209 kts
2026-04-25 20:12 59.27985 17.80098 3796 ft 209 kts
2026-04-25 20:12 59.28468 17.80229 3711 ft 209 kts
2026-04-25 20:13 59.30866 17.80882 3272 ft 209 kts
2026-04-25 20:13 59.32281 17.81267 3021 ft 208 kts
2026-04-25 20:13 59.33732 17.81663 2731 ft 209 kts
2026-04-25 20:13 59.35166 17.82054 2488 ft 209 kts
2026-04-25 20:14 59.36583 17.82442 2406 ft 205 kts
2026-04-25 20:14 59.38052 17.82843 2397 ft 210 kts
2026-04-25 20:14 59.39526 17.83036 2399 ft 210 kts
2026-04-25 20:14 59.40994 17.83327 2395 ft 210 kts
2026-04-25 20:15 59.42455 17.83770 2395 ft 210 kts
2026-04-25 20:15 59.43905 17.84267 2397 ft 208 kts
2026-04-25 20:15 59.45296 17.84755 2415 ft 192 kts
2026-04-25 20:15 59.46535 17.85185 2387 ft 170 kts
2026-04-25 20:16 59.47644 17.85567 2395 ft 161 kts
2026-04-25 20:16 59.48740 17.85955 2397 ft 160 kts
2026-04-25 20:16 59.49836 17.86344 2395 ft 159 kts
2026-04-25 20:16 59.50916 17.86732 2404 ft 158 kts
2026-04-25 20:17 59.51989 17.87113 2396 ft 160 kts
2026-04-25 20:17 59.53103 17.87514 2162 ft 161 kts
2026-04-25 20:17 59.54190 17.87903 1914 ft 159 kts
2026-04-25 20:17 59.55283 17.88294 1679 ft 155 kts
2026-04-25 20:18 59.56274 17.88648 1477 ft 139 kts
2026-04-25 20:18 59.57158 17.88964 1303 ft 120 kts
2026-04-25 20:18 59.57961 17.89248 1161 ft 116 kts
2026-04-25 20:18 59.58745 17.89531 1016 ft 115 kts
2026-04-25 20:19 59.59549 17.89818 864 ft 116 kts
2026-04-25 20:19 59.60335 17.90106 713 ft 116 kts
2026-04-25 20:19 59.61143 17.90400 614 ft 118 kts
2026-04-25 20:19 59.61945 17.90688 458 ft 118 kts
2026-04-25 20:20 59.62761 17.90968 341 ft 119 kts
2026-04-25 20:20 59.63574 17.91270 197 ft 121 kts 10°
2026-04-25 20:20 59.64378 17.91568 120 ft 104 kts
2026-04-25 20:20 59.64973 17.91776 114 ft 69 kts 10°
2026-04-25 20:21 59.65338 17.91906 113 ft 44 kts 11°
2026-04-25 20:21 59.65614 17.92034 115 ft 35 kts 19°
2026-04-25 20:21 59.65761 17.92199 117 ft 8 kts 46°
2026-04-25 20:21 59.65789 17.92285 117 ft 7 kts 69°
2026-04-25 20:22 59.65791 17.92367 118 ft 5 kts 114°
2026-04-25 20:22 59.65788 17.92377 118 ft 2 kts 131°
2026-04-25 20:22 59.65777 17.92389 117 ft 0 kts 158°
2026-04-25 20:22 59.65767 17.92397 117 ft 3 kts 158°
2026-04-25 20:23 59.65728 17.92430 117 ft 8 kts 157°
2026-04-25 20:23 59.65678 17.92456 117 ft 7 kts 169°
2026-04-25 20:23 59.65615 17.92482 117 ft 8 kts 168°
2026-04-25 20:23 59.65551 17.92514 117 ft 7 kts 163°
2026-04-25 20:24 59.65509 17.92544 117 ft 7 kts 157°
2026-04-25 20:24 59.65460 17.92592 117 ft 7 kts 150°
2026-04-25 20:24 59.65413 17.92648 117 ft 8 kts 150°
2026-04-25 20:24 59.65373 17.92690 117 ft 8 kts 150°
2026-04-25 20:25 59.65348 17.92765 118 ft 5 kts 108°
2026-04-25 20:25 59.65340 17.92827 118 ft 3 kts 103°
2026-04-25 20:25 59.65337 17.92864 118 ft 1 kts 100°
2026-04-25 20:25 59.65334 17.92886 118 ft 1 kts 101°
2026-04-25 20:26 59.65334 17.92893 118 ft 0 kts 101°